[[{"header":{"parameterUnit":"m.s-1","parameterCategory":1,"la1":30.2991,"la2":30.254,"lo1":-89.0895,"lo2":-89.0444,"dy":0.0017,"dx":0.0017,"nx":28,"ny":28,"refTime":"2025-05-22T09:00:00:Z","depth":0,"parameterNumber":2,"parameterNumberName":"U-component_of_WINDS"},"data":[0,0,0,0,0,0,0,0,0,0,0,0,0,0,0,0,0,0,0,0,0,0,0,0,0,0,0,0,0,0,0,0,0,0,0,0,0,0,0,0,0,0,0,0,0,0,0,0,0,0,0,0,0,0,0,0,0,0,-0.8916,-0.8915,0,-0.879,-0.8788,-0.8787,-0.8703,-0.8703,-0.8702,-0.8702,-0.8568,-0.8565,-0.8562,0,0,0,0,0,0,0,0,0,0,0,0,0,-0.9082,-0.908,-0.8917,-0.8915,-0.8913,-0.879,-0.8788,-0.8787,-0.8703,-0.8703,-0.8702,-0.8701,-0.8569,-0.8566,-0.8562,0,0,0,0,0,0,0,0,0,0,0,0,0,-0.8988,-0.9079,-0.8917,-0.8857,-0.8851,-0.879,-0.8788,-0.8786,-0.8703,-0.8703,-0.8702,-0.8701,-0.857,-0.8566,-0.8561,-0.855,0,0,-0.8548,-0.8546,0,0,0,0,0,0,0,0,-0.8994,-0.8982,-0.8867,-0.8861,-0.8854,-0.8762,-0.8798,-0.8707,-0.8704,-0.8759,-0.8702,-0.8701,-0.8633,-0.8623,-0.8601,-0.8544,-0.8538,-0.8547,-0.8544,-0.8542,-0.8541,0,0,0,0,0,0,0,-0.9,-0.8987,-0.8866,-0.8866,-0.8857,-0.8835,-0.8821,-0.878,-0.8702,-0.8754,-0.8748,-0.8734,-0.8629,-0.8606,-0.8597,-0.8536,-0.8547,-0.8543,-0.854,-0.8539,-0.8461,-0.8462,0,0,0,0,0,0,-0.9017,-0.8993,-0.887,-0.8863,-0.8923,-0.8833,-0.8817,-0.8792,-0.8702,-0.8688,-0.8735,-0.8731,-0.8614,-0.8603,-0.8592,-0.8572,-0.8542,-0.8538,-0.8536,-0.846,-0.8461,-0.8462,0,0,0,0,0,0,-0.9021,-0.9007,-0.8875,-0.8926,-0.8908,-0.8831,-0.8803,-0.879,-0.8767,-0.8688,-0.8673,-0.8726,-0.8613,-0.8599,-0.8561,-0.8566,-0.8536,-0.8532,-0.8459,-0.846,-0.8461,-0.8532,0,0,0,0,0,0,-0.9026,-0.9009,-0.9005,-0.8927,-0.8905,-0.8848,-0.8804,-0.8788,-0.8759,-0.8753,-0.8675,-0.8662,-0.8611,-0.8568,-0.8557,-0.856,-0.8528,-0.8459,-0.846,-0.8461,-0.8529,-0.8536,-0.8541,0,0,0,0,0,-0.9032,-0.9029,-0.9005,-0.899,-0.8899,-0.8848,-0.8836,-0.8779,-0.876,-0.8755,-0.8704,-0.8664,-0.8568,-0.8565,-0.8551,-0.8553,-0.8458,-0.846,-0.8461,-0.8527,-0.8535,-0.8541,0,0,0,0,0,0,-0.9108,-0.9018,-0.899,-0.8962,-0.8914,-0.8834,-0.8826,-0.8789,-0.8744,-0.874,-0.8669,-0.8652,-0.8622,-0.8583,-0.8582,-0.8536,-0.8508,-0.8507,-0.8563,-0.857,-0.8576,-0.8585,-0.8525,0,0,0,0,0,-0.9122,-0.909,-0.9012,-0.8994,-0.8972,-0.8903,-0.8879,-0.8839,-0.8786,-0.8765,-0.8711,-0.866,-0.8618,-0.8591,-0.8548,-0.8523,-0.8505,-0.8517,-0.8524,-0.8529,-0.8529,-0.8511,-0.8516,-0.8467,-0.8467,-0.8467,0,0,-0.9149,-0.9096,-0.908,-0.9008,-0.8966,-0.8933,-0.8886,-0.8853,-0.8828,-0.8759,-0.872,-0.8679,-0.8617,-0.8586,-0.8569,-0.8553,-0.8538,-0.8531,-0.8536,-0.8532,-0.8514,-0.8518,-0.8523,-0.8468,-0.8468,-0.8467,0,0,-0.9183,-0.9139,-0.912,-0.9079,-0.9016,-0.8971,-0.8966,-0.8892,-0.8863,-0.8823,-0.8771,-0.8738,-0.8668,-0.8625,-0.8595,-0.8612,-0.8573,-0.8599,-0.8631,-0.8615,-0.8619,-0.8622,-0.8628,-0.863,-0.8599,-0.86,-0.86,0,-0.9224,-0.9174,-0.9114,-0.9085,-0.9054,-0.8991,-0.897,-0.8933,-0.8859,-0.8839,-0.8822,-0.8732,-0.8685,-0.8643,-0.8647,-0.8624,-0.8616,-0.8608,-0.8624,-0.8626,-0.8628,-0.8632,-0.8635,-0.8603,-0.8603,-0.8602,-0.8602,0,-0.9228,-0.9194,-0.9185,-0.9117,-0.9085,-0.906,-0.8996,-0.8971,-0.8933,-0.8889,-0.8849,-0.8791,-0.8735,-0.8722,-0.8685,-0.8674,-0.8665,-0.8637,-0.8607,-0.8637,-0.864,-0.8641,-0.8608,-0.8607,-0.8606,-0.8605,0,0,-0.9306,-0.9205,-0.9203,-0.9171,-0.9097,-0.9068,-0.904,-0.8986,-0.8966,-0.8917,-0.889,-0.8832,-0.8805,-0.877,-0.8727,-0.8714,-0.873,-0.8686,-0.8684,-0.8696,-0.8713,-0.8735,-0.8738,-0.8704,-0.8704,-0.8704,-0.8718,0,-0.9328,-0.9275,-0.922,-0.9186,-0.9153,-0.9093,-0.9067,-0.9018,-0.8976,-0.8941,-0.8893,-0.8853,-0.8821,-0.8799,-0.8783,-0.8732,-0.8732,-0.873,-0.8677,-0.8676,-0.8695,-0.874,-0.8763,-0.8779,-0.8719,-0.8719,-0.8719,0,-0.9347,-0.9302,-0.9265,-0.9194,-0.9178,-0.9156,-0.9102,-0.907,-0.9013,-0.8982,-0.8944,-0.8899,-0.8864,-0.8838,-0.8789,-0.8788,-0.8763,-0.8735,-0.8734,-0.8727,-0.87,-0.8734,-0.8783,-0.8786,-0.8721,-0.8721,-0.872,0,-0.9407,-0.9337,-0.9306,-0.928,-0.9196,-0.9183,-0.9147,-0.9089,-0.906,-0.9012,-0.8992,-0.8941,-0.8913,-0.8873,-0.8815,-0.8802,-0.8771,-0.8741,-0.8744,-0.8746,-0.8741,-0.8742,-0.8787,-0.8725,-0.8725,-0.8725,-0.8725,0,-0.9438,-0.9417,-0.9332,-0.9313,-0.9287,-0.9224,-0.92,-0.9159,-0.9108,-0.9078,-0.9022,-0.8995,-0.892,-0.8884,-0.8837,-0.8803,-0.8791,-0.8764,-0.8752,-0.8769,-0.8773,-0.8752,-0.8749,-0.8726,-0.8726,-0.8726,-0.8726,0,-0.9501,-0.9443,-0.9405,-0.9329,-0.9309,-0.9294,-0.9228,-0.9206,-0.9161,-0.9124,-0.9111,-0.9039,-0.8994,-0.8932,-0.8866,-0.8835,-0.8807,-0.8788,-0.8827,-0.882,-0.8827,-0.8827,-0.886,-0.886,-0.88,-0.88,-0.8801,0,-0.9524,-0.9507,-0.9429,-0.9406,-0.9373,-0.9336,-0.9307,-0.9243,-0.9214,-0.9147,-0.9133,-0.9084,-0.9041,-0.897,-0.8911,-0.8861,-0.884,-0.8855,-0.8832,-0.8849,-0.8839,-0.8841,-0.8839,-0.8861,-0.8862,-0.8862,-0.8863,0,-0.9571,-0.9543,-0.9504,-0.9454,-0.9421,-0.9378,-0.9333,-0.9316,-0.9243,-0.9213,-0.9166,-0.9133,-0.9067,-0.9018,-0.896,-0.892,-0.8879,-0.8871,-0.8869,-0.8886,-0.8909,-0.8896,-0.8842,-0.887,-0.887,-0.8869,-0.8869,-0.8868,-0.9614,-0.9596,-0.9539,-0.9497,-0.9456,-0.9415,-0.9391,-0.9342,-0.9303,-0.9245,-0.9209,-0.9164,-0.9106,-0.9023,-0.8986,-0.8949,-0.8933,-0.893,-0.8929,-0.8929,-0.8935,-0.8916,-0.8938,-0.8938,-0.8937,-0.8937,-0.8937,0,-0.9658,-0.9619,-0.958,-0.9519,-0.9485,-0.9451,-0.9398,-0.9372,-0.9333,-0.9283,-0.9242,-0.9188,-0.914,-0.9078,-0.9025,-0.9007,-0.8987,-0.8995,-0.8996,-0.8987,-0.8953,-0.896,-0.9013,-0.9013,-0.9013,-0.9013,-0.9013,-0.9013,-0.9677,-0.9645,-0.961,-0.9557,-0.9516,-0.9473,-0.9446,-0.9407,-0.9367,-0.9309,-0.927,-0.923,-0.9174,-0.9117,-0.9071,-0.9053,-0.9036,-0.905,-0.9027,-0.8996,-0.899,-0.8983,-0.8989,-0.9047,-0.9047,-0.9064,-0.9065,-0.9065]},{"header":{"parameterUnit":"m.s-1","parameterCategory":1,"la1":30.2991,"la2":30.254,"lo1":-89.0895,"lo2":-89.0444,"dy":0.0017,"dx":0.0017,"nx":28,"ny":28,"refTime":"2025-05-22T09:00:00:Z","depth":0,"parameterNumber":3,"parameterNumberName":"V-component_of_WINDS"},"data":[0,0,0,0,0,0,0,0,0,0,0,0,0,0,0,0,0,0,0,0,0,0,0,0,0,0,0,0,0,0,0,0,0,0,0,0,0,0,0,0,0,0,0,0,0,0,0,0,0,0,0,0,0,0,0,0,0,0,1.7901,1.79,0,1.784,1.7839,1.7839,1.7814,1.7814,1.7815,1.7815,1.775,1.7748,1.7746,0,0,0,0,0,0,0,0,0,0,0,0,0,1.7992,1.799,1.7901,1.79,1.7899,1.784,1.7839,1.7838,1.7814,1.7814,1.7815,1.7815,1.7751,1.7749,1.7746,0,0,0,0,0,0,0,0,0,0,0,0,0,1.7944,1.799,1.7901,1.788,1.7878,1.784,1.7839,1.7838,1.7814,1.7814,1.7815,1.7815,1.7751,1.7749,1.7746,1.7724,0,0,1.7737,1.7736,0,0,0,0,0,0,0,0,1.7947,1.7941,1.7884,1.7881,1.7879,1.7835,1.7848,1.78,1.7814,1.7838,1.7815,1.7815,1.7778,1.7773,1.7761,1.7721,1.7718,1.7737,1.7735,1.7734,1.7733,0,0,0,0,0,0,0,1.795,1.7943,1.7877,1.7883,1.788,1.7873,1.7866,1.7839,1.7807,1.7836,1.7834,1.7828,1.7777,1.7764,1.7759,1.7717,1.7737,1.7735,1.7733,1.7732,1.7654,1.7653,0,0,0,0,0,0,1.7957,1.7946,1.7878,1.7875,1.7914,1.7871,1.7863,1.7849,1.7808,1.7802,1.7827,1.7827,1.7768,1.7763,1.7757,1.7727,1.7734,1.7732,1.773,1.7654,1.7654,1.7653,0,0,0,0,0,0,1.7959,1.7951,1.7881,1.791,1.79,1.7869,1.7853,1.7847,1.7835,1.7801,1.7795,1.782,1.7768,1.7761,1.7732,1.7725,1.773,1.7728,1.7655,1.7654,1.7653,1.7668,0,0,0,0,0,0,1.7962,1.7952,1.7945,1.791,1.7899,1.7858,1.7852,1.7846,1.783,1.7829,1.7793,1.7787,1.7768,1.7736,1.7729,1.7721,1.7726,1.7655,1.7654,1.7654,1.7668,1.7668,1.7668,0,0,0,0,0,1.7965,1.7951,1.7944,1.7936,1.7889,1.7858,1.7851,1.7831,1.783,1.7821,1.7799,1.7788,1.7727,1.7734,1.7725,1.7716,1.7655,1.7655,1.7654,1.7668,1.7668,1.7668,0,0,0,0,0,0,1.7986,1.7946,1.7938,1.7913,1.7889,1.7854,1.7842,1.7831,1.7807,1.7806,1.778,1.7772,1.7745,1.7728,1.7736,1.7691,1.769,1.7688,1.7704,1.7704,1.7704,1.7708,1.7723,0,0,0,0,0,1.7987,1.7966,1.7933,1.7913,1.7902,1.7874,1.786,1.7846,1.782,1.7809,1.7785,1.776,1.7734,1.7718,1.7693,1.7666,1.7656,1.7655,1.7655,1.7655,1.7653,1.7635,1.7634,1.765,1.765,1.765,0,0,1.799,1.7966,1.7954,1.7917,1.7897,1.7874,1.7866,1.7843,1.7826,1.7805,1.7777,1.7758,1.7727,1.7699,1.7685,1.7683,1.7646,1.7654,1.7654,1.7652,1.7634,1.7633,1.7631,1.765,1.765,1.765,0,0,1.7984,1.7964,1.7945,1.7925,1.7894,1.7876,1.7871,1.7837,1.7824,1.7795,1.7779,1.7757,1.7715,1.7693,1.7677,1.766,1.7648,1.7653,1.7652,1.7635,1.7634,1.7633,1.7625,1.7623,1.7651,1.7651,1.7651,0,1.7991,1.7958,1.7936,1.7914,1.7897,1.7878,1.7857,1.7838,1.7801,1.7789,1.7788,1.7733,1.7711,1.7676,1.7672,1.766,1.7652,1.7656,1.7636,1.7634,1.7633,1.7625,1.7623,1.7651,1.7651,1.7651,1.7651,0,1.7967,1.7944,1.7932,1.7897,1.7878,1.7857,1.7831,1.7815,1.7802,1.7783,1.7752,1.7725,1.7694,1.7684,1.7672,1.7647,1.7647,1.7641,1.7639,1.7632,1.7625,1.7622,1.7652,1.7652,1.7652,1.7652,0,0,1.7973,1.7925,1.7921,1.7903,1.7868,1.7849,1.7826,1.7795,1.7781,1.7756,1.7735,1.7698,1.7692,1.7673,1.7658,1.7643,1.763,1.7639,1.7638,1.7637,1.7599,1.7603,1.76,1.7622,1.7621,1.7621,1.7601,0,1.7961,1.792,1.7899,1.7866,1.7843,1.7824,1.7803,1.7779,1.776,1.7737,1.7716,1.769,1.7685,1.7673,1.7658,1.7635,1.7621,1.7636,1.76,1.7599,1.7608,1.7596,1.7601,1.7583,1.7598,1.7598,1.7597,0,1.7942,1.7916,1.7881,1.7847,1.7836,1.7818,1.7788,1.7767,1.7737,1.7724,1.7703,1.7687,1.766,1.766,1.7622,1.7632,1.7616,1.7603,1.7601,1.7597,1.7598,1.759,1.7577,1.7574,1.7593,1.7593,1.7593,0,1.7948,1.7905,1.7878,1.7864,1.7823,1.7811,1.7793,1.7764,1.7746,1.7719,1.7707,1.7677,1.766,1.7636,1.7612,1.7615,1.7575,1.7574,1.7563,1.7563,1.7555,1.7556,1.7538,1.7547,1.7547,1.7547,1.7547,0,1.7936,1.7915,1.788,1.7863,1.7838,1.7814,1.7789,1.777,1.7744,1.7722,1.7703,1.7683,1.7653,1.7628,1.7609,1.7579,1.7572,1.756,1.7555,1.7561,1.7562,1.755,1.755,1.7546,1.7546,1.7546,1.7546,0,1.7939,1.7914,1.7883,1.7847,1.7837,1.782,1.7788,1.777,1.775,1.7723,1.7715,1.7683,1.7653,1.7626,1.7587,1.7574,1.7542,1.7537,1.7553,1.755,1.7539,1.754,1.7513,1.7507,1.752,1.752,1.752,0,1.7933,1.7916,1.7877,1.7862,1.7844,1.7819,1.7801,1.7775,1.7757,1.7721,1.7707,1.7675,1.7649,1.7601,1.7573,1.7542,1.7535,1.7528,1.753,1.7536,1.7533,1.7534,1.7531,1.7527,1.7527,1.7527,1.7527,0,1.7924,1.7912,1.7887,1.7857,1.7836,1.7811,1.7785,1.7773,1.7742,1.7722,1.7691,1.767,1.7629,1.7597,1.7563,1.7543,1.7529,1.7527,1.7522,1.7528,1.7537,1.753,1.7551,1.7527,1.7527,1.7527,1.7527,1.7527,1.7921,1.7905,1.7875,1.7847,1.7824,1.78,1.7781,1.7759,1.7733,1.7697,1.7684,1.7652,1.762,1.7573,1.7552,1.7526,1.7524,1.7518,1.7516,1.7514,1.7515,1.7542,1.752,1.752,1.752,1.752,1.752,0,1.7911,1.789,1.7864,1.7829,1.7806,1.7796,1.7766,1.7748,1.772,1.7692,1.7666,1.7629,1.7598,1.7568,1.7534,1.7519,1.7511,1.7511,1.7511,1.7506,1.7519,1.7526,1.7517,1.7517,1.7517,1.7517,1.7517,1.7517,1.7903,1.7874,1.7858,1.7817,1.7796,1.7765,1.7749,1.7726,1.7703,1.7663,1.7637,1.7618,1.7588,1.7552,1.7522,1.7514,1.7502,1.7503,1.7493,1.7505,1.7506,1.7506,1.7512,1.7501,1.7501,1.7481,1.7481,1.7481]}]]